Portada
METAR-TAF:

METAR-TAF

Aeroports :

Dijon, França

latitud: 47-16N, longitud: 005-05E, altitud: 222 m

Observació

L'informe es va fer fa 5 minuts, a les 09:00 UTC
Vent 1 kt amb direcció variable
Temperatura 20°C
Humitat 68%
Pressió 1027 hPa
Visibilitat 10 km o més
sense núvols per sota de 1500 mi sense presència de cumulonimbus.

METAR: LFSD 300900Z AUTO VRB01KT CAVOK 20/14 Q1027

Hora: 11:05 (09:05 UTC)


TAF: manca

Observacions i pronòstics meteorològics de més de 4000 aeroports (METAR i TAF).

Les estacions disponibles són els punts grocs i vermells al mapa.

Posi el ratolí al punt desitjat per veure el nom de l'estació.

Feu clic per veure les observacions i els pronòstics meteorològics.

Per canviar el mapa: feu clic els botons verds amb una creu de color negre per apropar; al botó verd amb un guió per allunyar la imatge; o en les fletxes verdes per a mapes adjacents.


METAR-TAF: